Time,TemperatureF,DewpointF,PressureIn,WindDirection,WindDirectionDegrees,WindSpeedMPH,WindSpeedGustMPH,Humidity,HourlyPrecipIn,Conditions,Clouds,dailyrainin,SoftwareType,DateUTC
2013-03-22 00:02:00,26.0,24.0,30.04,ENE,71,2.0,6.0,91,0.00,,,0.00,,2013-03-22 05:02:00,
2013-03-22 00:12:00,26.0,24.0,30.04,ENE,71,2.0,6.0,91,0.00,,,0.00,,2013-03-22 05:12:00,
2013-03-22 00:22:00,26.0,24.0,30.05,NE,53,2.0,8.0,91,0.00,,,0.00,,2013-03-22 05:22:00,
2013-03-22 00:32:00,26.0,24.0,30.05,ENE,68,2.0,8.0,91,0.00,,,0.00,,2013-03-22 05:32:00,
2013-03-22 00:42:00,26.0,24.0,30.05,ENE,68,2.0,8.0,91,0.00,,,0.00,,2013-03-22 05:42:00,
2013-03-22 00:52:00,27.0,25.0,30.05,NE,50,2.0,7.0,91,0.00,,,0.00,,2013-03-22 05:52:00,
2013-03-22 01:02:00,27.0,25.0,30.05,NE,47,1.0,7.0,91,0.00,,,0.00,,2013-03-22 06:02:00,
2013-03-22 01:13:00,27.0,25.0,30.05,NE,47,1.0,7.0,91,0.00,,,0.00,,2013-03-22 06:13:00,
2013-03-22 01:22:00,27.0,25.0,30.05,NE,55,2.0,8.0,91,0.00,,,0.00,,2013-03-22 06:22:00,
2013-03-22 01:32:00,27.0,25.0,30.05,ENE,63,0.0,7.0,91,0.00,,,0.00,,2013-03-22 06:32:00,
2013-03-22 01:42:00,27.0,25.0,30.05,ENE,63,0.0,7.0,91,0.00,,,0.00,,2013-03-22 06:42:00,
2013-03-22 01:52:00,27.0,25.0,30.05,NNE,29,1.0,9.0,92,0.00,,,0.00,,2013-03-22 06:52:00,
2013-03-22 02:02:00,27.0,25.0,30.06,ENE,63,3.0,8.0,92,0.00,,,0.00,,2013-03-22 07:02:00,
2013-03-22 02:12:00,27.0,25.0,30.06,ENE,63,3.0,8.0,92,0.00,,,0.00,,2013-03-22 07:12:00,
2013-03-22 02:22:00,27.0,25.0,30.06,ENE,64,4.0,9.0,92,0.00,,,0.00,,2013-03-22 07:22:00,
2013-03-22 02:32:00,27.0,25.0,30.06,ENE,71,2.0,8.0,92,0.00,,,0.00,,2013-03-22 07:32:00,
2013-03-22 02:42:00,27.0,25.0,30.06,ENE,71,2.0,8.0,92,0.00,,,0.00,,2013-03-22 07:42:00,
2013-03-22 02:52:00,27.0,25.0,30.06,NE,48,1.0,6.0,92,0.00,,,0.00,,2013-03-22 07:52:00,
2013-03-22 03:03:00,27.0,25.0,30.06,ENE,61,1.0,9.0,92,0.00,,,0.00,,2013-03-22 08:03:00,
2013-03-22 03:12:00,27.0,25.0,30.06,ENE,61,1.0,9.0,92,0.00,,,0.00,,2013-03-22 08:12:00,
2013-03-22 03:22:00,27.0,25.0,30.06,ENE,65,2.0,8.0,92,0.00,,,0.00,,2013-03-22 08:22:00,
2013-03-22 03:32:00,27.0,25.0,30.06,ENE,61,5.0,10.0,92,0.00,,,0.00,,2013-03-22 08:32:00,
2013-03-22 03:42:00,27.0,25.0,30.06,ENE,61,5.0,10.0,92,0.00,,,0.00,,2013-03-22 08:42:00,
2013-03-22 03:52:00,27.0,25.0,30.06,ENE,59,3.0,7.0,92,0.00,,,0.00,,2013-03-22 08:52:00,
2013-03-22 04:02:00,27.0,25.0,30.06,ENE,59,0.0,6.0,92,0.00,,,0.00,,2013-03-22 09:02:00,
2013-03-22 04:12:00,27.0,25.0,30.06,ENE,59,0.0,6.0,92,0.00,,,0.00,,2013-03-22 09:12:00,
2013-03-22 04:22:00,27.0,25.0,30.06,NE,53,0.0,8.0,92,0.00,,,0.00,,2013-03-22 09:22:00,
2013-03-22 04:32:00,27.0,25.0,30.06,NE,49,0.0,7.0,92,0.00,,,0.00,,2013-03-22 09:32:00,
2013-03-22 04:42:00,27.0,25.0,30.06,NE,49,0.0,7.0,92,0.00,,,0.00,,2013-03-22 09:42:00,
2013-03-22 04:53:00,27.0,25.0,30.06,ENE,60,1.0,9.0,92,0.00,,,0.00,,2013-03-22 09:53:00,
2013-03-22 05:03:00,27.0,25.0,30.05,NE,55,2.0,6.0,92,0.00,,,0.00,,2013-03-22 10:03:00,
2013-03-22 05:12:00,27.0,25.0,30.05,NE,55,2.0,6.0,92,0.00,,,0.00,,2013-03-22 10:12:00,
2013-03-22 05:22:00,27.0,25.0,30.06,ENE,64,1.0,9.0,92,0.00,,,0.00,,2013-03-22 10:22:00,
2013-03-22 05:32:00,27.0,25.0,30.05,ENE,66,2.0,7.0,92,0.00,,,0.00,,2013-03-22 10:32:00,
2013-03-22 05:42:00,27.0,25.0,30.05,ENE,66,2.0,7.0,92,0.00,,,0.00,,2013-03-22 10:42:00,
2013-03-22 05:52:00,27.0,25.0,30.05,ENE,57,2.0,5.0,92,0.00,,,0.00,,2013-03-22 10:52:00,
2013-03-22 06:03:00,27.0,25.0,30.05,ENE,65,3.0,10.0,92,0.00,,,0.00,,2013-03-22 11:03:00,
2013-03-22 06:12:00,27.0,25.0,30.05,ENE,65,3.0,10.0,92,0.00,,,0.00,,2013-03-22 11:12:00,
2013-03-22 06:22:00,27.0,25.0,30.06,ENE,64,0.0,8.0,92,0.00,,,0.00,,2013-03-22 11:22:00,
2013-03-22 06:33:00,27.0,25.0,30.06,NE,53,0.0,6.0,92,0.00,,,0.00,,2013-03-22 11:33:00,
2013-03-22 06:42:00,27.0,25.0,30.06,NE,53,0.0,6.0,92,0.00,,,0.00,,2013-03-22 11:42:00,
2013-03-22 07:02:00,27.0,25.0,30.06,NE,45,4.0,12.0,92,0.00,,,0.00,,2013-03-22 12:02:00,
2013-03-22 07:12:00,27.0,25.0,30.06,ENE,58,0.0,8.0,91,0.00,,,0.00,,2013-03-22 12:12:00,
2013-03-22 07:22:00,27.0,25.0,30.06,ENE,58,0.0,8.0,91,0.00,,,0.00,,2013-03-22 12:22:00,
2013-03-22 07:32:00,27.0,25.0,30.06,East,88,4.0,10.0,91,0.00,,,0.00,,2013-03-22 12:32:00,
2013-03-22 07:42:00,27.0,25.0,30.06,East,88,4.0,10.0,91,0.00,,,0.00,,2013-03-22 12:42:00,
2013-03-22 07:52:00,27.0,25.0,30.06,ENE,65,1.0,9.0,91,0.00,,,0.00,,2013-03-22 12:52:00,
2013-03-22 08:02:00,27.0,24.0,30.08,NE,38,0.0,8.0,90,0.00,,,0.00,,2013-03-22 13:02:00,
2013-03-22 08:12:00,27.0,24.0,30.08,NE,38,0.0,8.0,90,0.00,,,0.00,,2013-03-22 13:12:00,
2013-03-22 08:22:00,27.0,24.0,30.08,NE,45,3.0,7.0,90,0.00,,,0.00,,2013-03-22 13:22:00,
2013-03-22 08:32:00,27.0,24.0,30.09,NE,42,1.0,7.0,90,0.00,,,0.00,,2013-03-22 13:32:00,
2013-03-22 08:42:00,27.0,24.0,30.09,NE,42,1.0,7.0,90,0.00,,,0.00,,2013-03-22 13:42:00,
2013-03-22 08:52:00,27.0,24.0,30.09,ENE,68,0.0,4.0,90,0.00,,,0.00,,2013-03-22 13:52:00,
2013-03-22 09:02:00,27.0,24.0,30.08,ENE,68,2.0,6.0,90,0.00,,,0.00,,2013-03-22 14:02:00,
2013-03-22 09:12:00,27.0,24.0,30.08,ENE,68,2.0,6.0,90,0.00,,,0.00,,2013-03-22 14:12:00,
2013-03-22 09:22:00,27.0,24.0,30.07,ENE,63,0.0,8.0,90,0.00,,,0.00,,2013-03-22 14:22:00,
2013-03-22 09:32:00,27.0,24.0,30.07,ENE,68,3.0,7.0,90,0.00,,,0.00,,2013-03-22 14:32:00,
2013-03-22 09:42:00,27.0,24.0,30.07,ENE,68,3.0,7.0,90,0.00,,,0.00,,2013-03-22 14:42:00,
2013-03-22 09:52:00,27.0,24.0,30.07,ENE,71,3.0,9.0,90,0.00,,,0.00,,2013-03-22 14:52:00,
2013-03-22 10:03:00,27.0,24.0,30.06,ENE,73,3.0,11.0,90,0.00,,,0.00,,2013-03-22 15:03:00,
2013-03-22 10:12:00,27.0,24.0,30.06,ENE,73,3.0,11.0,90,0.00,,,0.00,,2013-03-22 15:12:00,
2013-03-22 10:22:00,28.0,25.0,30.06,ENE,63,3.0,9.0,90,0.00,,,0.00,,2013-03-22 15:22:00,
2013-03-22 10:32:00,28.0,25.0,30.07,ENE,61,3.0,8.0,90,0.00,,,0.00,,2013-03-22 15:32:00,
2013-03-22 10:42:00,28.0,25.0,30.07,ENE,61,3.0,8.0,90,0.00,,,0.00,,2013-03-22 15:42:00,
2013-03-22 10:52:00,28.0,25.0,30.07,ENE,75,1.0,8.0,90,0.00,,,0.00,,2013-03-22 15:52:00,
2013-03-22 11:02:00,28.0,25.0,30.08,NE,53,3.0,12.0,90,0.00,,,0.00,,2013-03-22 16:02:00,
2013-03-22 11:13:00,28.0,25.0,30.08,NE,51,2.0,6.0,90,0.00,,,0.00,,2013-03-22 16:13:00,
2013-03-22 11:22:00,28.0,25.0,30.08,NE,51,2.0,6.0,90,0.00,,,0.00,,2013-03-22 16:22:00,
2013-03-22 11:32:00,29.0,26.0,30.08,NE,39,2.0,7.0,90,0.00,,,0.00,,2013-03-22 16:32:00,
2013-03-22 11:42:00,29.0,26.0,30.08,ENE,61,1.0,8.0,90,0.00,,,0.00,,2013-03-22 16:42:00,
2013-03-22 11:52:00,29.0,26.0,30.08,ENE,61,1.0,8.0,90,0.00,,,0.00,,2013-03-22 16:52:00,
2013-03-22 12:03:00,29.0,26.0,30.08,East,87,1.0,5.0,89,0.00,,,0.00,,2013-03-22 17:03:00,
2013-03-22 12:12:00,29.0,26.0,30.08,ENE,76,1.0,4.0,90,0.00,,,0.00,,2013-03-22 17:12:00,
2013-03-22 12:23:00,29.0,26.0,30.08,ENE,76,1.0,4.0,90,0.00,,,0.00,,2013-03-22 17:23:00,
2013-03-22 12:32:00,29.0,26.0,30.08,ENE,64,2.0,7.0,90,0.00,,,0.00,,2013-03-22 17:32:00,
2013-03-22 12:42:00,29.0,26.0,30.08,ENE,64,2.0,7.0,90,0.00,,,0.00,,2013-03-22 17:42:00,
2013-03-22 12:52:00,29.0,26.0,30.08,ENE,60,2.0,7.0,90,0.00,,,0.00,,2013-03-22 17:52:00,
2013-03-22 13:02:00,29.0,26.0,30.08,ENE,61,0.0,3.0,90,0.00,,,0.00,,2013-03-22 18:02:00,
2013-03-22 13:12:00,29.0,26.0,30.08,ENE,61,0.0,3.0,90,0.00,,,0.00,,2013-03-22 18:12:00,
2013-03-22 13:22:00,29.0,26.0,30.09,ENE,61,0.0,3.0,90,0.00,,,0.00,,2013-03-22 18:22:00,
2013-03-22 13:33:00,29.0,26.0,30.08,ENE,63,1.0,4.0,90,0.00,,,0.00,,2013-03-22 18:33:00,
2013-03-22 13:42:00,29.0,26.0,30.08,ENE,63,1.0,4.0,90,0.00,,,0.00,,2013-03-22 18:42:00,
2013-03-22 13:52:00,29.0,26.0,30.08,ENE,63,1.0,4.0,90,0.00,,,0.00,,2013-03-22 18:52:00,
2013-03-22 14:02:00,29.0,26.0,30.09,ENE,63,0.0,3.0,90,0.00,,,0.00,,2013-03-22 19:02:00,
2013-03-22 14:12:00,29.0,26.0,30.09,ENE,63,0.0,3.0,90,0.00,,,0.00,,2013-03-22 19:12:00,
2013-03-22 14:22:00,30.0,28.0,30.06,NE,53,1.0,7.0,91,0.00,,,0.00,,2013-03-22 19:22:00,
2013-03-22 14:32:00,30.0,28.0,30.06,NE,52,2.0,7.0,91,0.00,,,0.00,,2013-03-22 19:32:00,
2013-03-22 14:42:00,30.0,28.0,30.06,NE,52,2.0,7.0,91,0.00,,,0.00,,2013-03-22 19:42:00,
2013-03-22 14:52:00,30.0,28.0,30.06,NE,38,0.0,5.0,91,0.00,,,0.00,,2013-03-22 19:52:00,
2013-03-22 15:02:00,30.0,27.0,30.06,ENE,60,0.0,6.0,90,0.00,,,0.00,,2013-03-22 20:02:00,
2013-03-22 15:12:00,30.0,27.0,30.06,ENE,60,0.0,6.0,90,0.00,,,0.00,,2013-03-22 20:12:00,
2013-03-22 15:22:00,30.0,27.0,30.06,ENE,59,0.0,6.0,90,0.00,,,0.00,,2013-03-22 20:22:00,
2013-03-22 15:32:00,30.0,27.0,30.06,ENE,67,2.0,7.0,90,0.00,,,0.00,,2013-03-22 20:32:00,
2013-03-22 15:42:00,30.0,27.0,30.06,ENE,67,2.0,7.0,90,0.00,,,0.00,,2013-03-22 20:42:00,
2013-03-22 15:52:00,30.0,27.0,30.05,ENE,67,0.0,5.0,90,0.00,,,0.00,,2013-03-22 20:52:00,
2013-03-22 16:03:00,30.0,27.0,30.05,ENE,69,2.0,8.0,90,0.00,,,0.00,,2013-03-22 21:03:00,
2013-03-22 16:12:00,30.0,27.0,30.05,ENE,61,1.0,4.0,90,0.01,,,0.01,,2013-03-22 21:12:00,
2013-03-22 16:22:00,30.0,27.0,30.05,ENE,61,1.0,4.0,90,0.01,,,0.01,,2013-03-22 21:22:00,
2013-03-22 16:32:00,30.0,27.0,30.05,ENE,64,1.0,4.0,90,0.01,,,0.01,,2013-03-22 21:32:00,
2013-03-22 16:42:00,30.0,27.0,30.05,ENE,64,1.0,4.0,90,0.01,,,0.01,,2013-03-22 21:42:00,
2013-03-22 16:52:00,30.0,27.0,30.05,ENE,63,2.0,8.0,90,0.01,,,0.01,,2013-03-22 21:52:00,
2013-03-22 17:03:00,30.0,27.0,30.05,ENE,63,0.0,3.0,89,0.01,,,0.01,,2013-03-22 22:03:00,
2013-03-22 17:12:00,30.0,27.0,30.05,ENE,63,0.0,3.0,89,0.01,,,0.01,,2013-03-22 22:12:00,
2013-03-22 17:23:00,30.0,27.0,30.06,ENE,57,1.0,4.0,89,0.00,,,0.01,,2013-03-22 22:23:00,
2013-03-22 17:32:00,30.0,27.0,30.06,ENE,61,3.0,7.0,89,0.00,,,0.01,,2013-03-22 22:32:00,
2013-03-22 17:42:00,30.0,27.0,30.06,ENE,61,3.0,7.0,89,0.00,,,0.01,,2013-03-22 22:42:00,
2013-03-22 17:52:00,31.0,28.0,30.06,ENE,57,0.0,3.0,89,0.01,,,0.02,,2013-03-22 22:52:00,
2013-03-22 18:02:00,31.0,28.0,30.06,ENE,59,0.0,4.0,88,0.01,,,0.02,,2013-03-22 23:02:00,
2013-03-22 18:12:00,31.0,28.0,30.06,ENE,59,0.0,4.0,88,0.01,,,0.02,,2013-03-22 23:12:00,
2013-03-22 18:22:00,31.0,28.0,30.06,ENE,65,0.0,8.0,87,0.01,,,0.02,,2013-03-22 23:22:00,
2013-03-22 18:32:00,31.0,28.0,30.06,ENE,60,3.0,8.0,87,0.01,,,0.02,,2013-03-22 23:32:00,
2013-03-22 18:42:00,31.0,28.0,30.06,ENE,60,3.0,8.0,87,0.01,,,0.02,,2013-03-22 23:42:00,
2013-03-22 18:52:00,31.0,28.0,30.06,NE,53,1.0,7.0,87,0.00,,,0.02,,2013-03-22 23:52:00,
2013-03-22 19:02:00,31.0,28.0,30.06,NE,44,2.0,7.0,87,0.00,,,0.02,,2013-03-23 00:02:00,
2013-03-22 19:12:00,31.0,28.0,30.06,NE,44,2.0,7.0,87,0.00,,,0.02,,2013-03-23 00:12:00,
2013-03-22 19:23:00,31.0,28.0,30.07,NE,49,2.0,6.0,87,0.00,,,0.02,,2013-03-23 00:23:00,
2013-03-22 19:32:00,30.0,27.0,30.08,NE,42,2.0,6.0,87,0.00,,,0.02,,2013-03-23 00:32:00,
2013-03-22 19:42:00,30.0,27.0,30.08,NE,53,1.0,7.0,87,0.00,,,0.02,,2013-03-23 00:42:00,
2013-03-22 19:52:00,30.0,27.0,30.08,NE,53,1.0,7.0,87,0.00,,,0.02,,2013-03-23 00:52:00,
2013-03-22 20:03:00,30.0,26.0,30.08,NE,53,1.0,6.0,86,0.00,,,0.02,,2013-03-23 01:03:00,
2013-03-22 20:12:00,30.0,26.0,30.08,NE,53,1.0,6.0,86,0.00,,,0.02,,2013-03-23 01:12:00,
2013-03-22 20:22:00,30.0,26.0,30.08,NE,37,1.0,4.0,86,0.00,,,0.02,,2013-03-23 01:22:00,
2013-03-22 20:32:00,30.0,26.0,30.08,NE,46,2.0,9.0,86,0.00,,,0.02,,2013-03-23 01:32:00,
2013-03-22 20:42:00,30.0,26.0,30.08,NE,46,2.0,9.0,86,0.00,,,0.02,,2013-03-23 01:42:00,
2013-03-22 20:52:00,30.0,26.0,30.08,NE,46,1.0,6.0,85,0.00,,,0.02,,2013-03-23 01:52:00,
2013-03-22 21:02:00,30.0,26.0,30.08,NE,40,2.0,8.0,84,0.00,,,0.02,,2013-03-23 02:02:00,
2013-03-22 21:12:00,30.0,26.0,30.08,NE,40,2.0,8.0,84,0.00,,,0.02,,2013-03-23 02:12:00,
2013-03-22 21:22:00,30.0,26.0,30.08,ENE,60,3.0,11.0,84,0.00,,,0.02,,2013-03-23 02:22:00,
2013-03-22 21:32:00,30.0,25.0,30.08,NE,41,1.0,7.0,83,0.00,,,0.02,,2013-03-23 02:32:00,
2013-03-22 21:42:00,30.0,25.0,30.08,NE,41,1.0,7.0,83,0.00,,,0.02,,2013-03-23 02:42:00,
2013-03-22 21:52:00,30.0,25.0,30.08,NE,36,2.0,7.0,83,0.00,,,0.02,,2013-03-23 02:52:00,
2013-03-22 22:02:00,30.0,25.0,30.08,ENE,58,0.0,7.0,83,0.00,,,0.02,,2013-03-23 03:02:00,
2013-03-22 22:12:00,30.0,25.0,30.08,ENE,58,0.0,7.0,83,0.00,,,0.02,,2013-03-23 03:12:00,
2013-03-22 22:22:00,30.0,25.0,30.09,ENE,61,2.0,9.0,83,0.00,,,0.02,,2013-03-23 03:22:00,
2013-03-22 22:33:00,30.0,25.0,30.10,ENE,61,1.0,7.0,83,0.00,,,0.02,,2013-03-23 03:33:00,
2013-03-22 22:43:00,30.0,25.0,30.10,ENE,61,1.0,7.0,83,0.00,,,0.02,,2013-03-23 03:43:00,
2013-03-22 22:53:00,30.0,25.0,30.11,NE,52,0.0,7.0,83,0.00,,,0.02,,2013-03-23 03:53:00,
2013-03-22 23:02:00,30.0,25.0,30.11,NE,49,0.0,7.0,83,0.00,,,0.02,,2013-03-23 04:02:00,
2013-03-22 23:12:00,30.0,25.0,30.11,NE,49,0.0,7.0,83,0.00,,,0.02,,2013-03-23 04:12:00,
2013-03-22 23:23:00,30.0,25.0,30.11,ENE,57,2.0,7.0,83,0.00,,,0.02,,2013-03-23 04:23:00,
2013-03-22 23:32:00,31.0,26.0,30.11,NE,55,0.0,7.0,83,0.00,,,0.02,,2013-03-23 04:32:00,
2013-03-22 23:43:00,31.0,26.0,30.11,NE,55,0.0,7.0,83,0.00,,,0.02,,2013-03-23 04:43:00,
2013-03-22 23:53:00,30.0,25.0,30.11,ENE,65,2.0,8.0,83,0.00,,,0.02,,2013-03-23 04:53:00,